^^
Datos históricos de la estación: Murcia-Puente Tocinos
Diario Informe para Agosto 26, 2019 Unidades:  Métrico    Inglés   Ambas
Diario Semanal Mensual Anual Configurable
  Máximo: Mínimo: Media:
Temperatura: 28.9 °C 23.1 °C 25.5 °C
Punto de rocio: 21.7 °C 19.0 °C 20.6 °C
Humedad: 87% 57% 75%
Velocidad viento: 20.9km/h 0.0km/h 8.6km/h
Racha viento: 38.6km/h - -
Viento- - ESE
Presión: 1015.2 hPa 1011.0 hPa -
Precipitación: 0.0 mm    
Historical Graphs
 
 
Tabla de datos para Agosto 26, 2019
Hora Temperatura Punto de rocio Presión Viento Velocidad viento Racha viento Humedad Intensidad lluvia(por hora) Nubes
00:00 24.6 °C 20.7 °C 1015.0 hPa Calm   3.2 km/h 79% 0.0 mm CLR
00:05 24.6 °C 20.7 °C 1015.0 hPa Calm   4.7 km/h 79% 0.0 mm CLR
00:10 24.6 °C 20.7 °C 1015.0 hPa NW 2.3 km/h 3.7 km/h 79% 0.0 mm CLR
00:15 24.6 °C 20.9 °C 1015.0 hPa NW 1.6 km/h 4.8 km/h 80% 0.0 mm CLR
00:20 24.5 °C 20.8 °C 1015.2 hPa NW 1.6 km/h 4.8 km/h 80% 0.0 mm CLR
00:25 24.5 °C 20.8 °C 1015.2 hPa NW 1.6 km/h   80% 0.0 mm CLR
00:30 24.5 °C 20.8 °C 1015.2 hPa Calm   4.8 km/h 80% 0.0 mm CLR
00:35 24.5 °C 20.8 °C 1015.1 hPa Calm   4.8 km/h 80% 0.0 mm CLR
00:40 24.5 °C 20.8 °C 1015.1 hPa Calm     80% 0.0 mm CLR
00:45 24.5 °C 20.8 °C 1015.1 hPa Calm   6.4 km/h 80% 0.0 mm CLR
00:50 24.5 °C 21.0 °C 1015.0 hPa Calm   4.8 km/h 81% 0.0 mm CLR
00:55 24.4 °C 20.7 °C 1015.0 hPa Calm   4.8 km/h 80% 0.0 mm CLR
01:00 24.4 °C 20.7 °C 1015.0 hPa NNW 1.6 km/h 4.8 km/h 80% 0.0 mm CLR
01:05 24.4 °C 20.7 °C 1014.9 hPa NNW 1.6 km/h 4.8 km/h 80% 0.0 mm CLR
01:10 24.3 °C 20.8 °C 1014.9 hPa NNW 3.2 km/h 8.0 km/h 81% 0.0 mm CLR
01:15 24.3 °C 20.8 °C 1014.9 hPa North 3.2 km/h 8.0 km/h 81% 0.0 mm CLR
01:20 24.2 °C 20.8 °C 1014.9 hPa North 3.2 km/h 4.8 km/h 81% 0.0 mm CLR
01:25 24.2 °C 20.7 °C 1014.9 hPa North 3.2 km/h 4.8 km/h 81% 0.0 mm CLR
01:30 24.3 °C 20.8 °C 1014.9 hPa Calm   3.2 km/h 81% 0.0 mm CLR
01:35 24.3 °C 20.8 °C 1014.6 hPa Calm   4.8 km/h 81% 0.0 mm CLR
01:40 24.2 °C 20.7 °C 1014.6 hPa NNW 3.2 km/h 8.0 km/h 81% 0.0 mm CLR
01:45 24.2 °C 20.7 °C 1014.6 hPa NW 3.2 km/h 8.0 km/h 81% 0.0 mm CLR
01:50 24.1 °C 20.8 °C 1014.4 hPa NW 3.2 km/h 8.0 km/h 82% 0.0 mm CLR
01:55 24.1 °C 20.8 °C 1014.4 hPa NNW 3.2 km/h 8.0 km/h 82% 0.0 mm CLR
02:00 24.0 °C 20.7 °C 1014.4 hPa NNW 3.2 km/h 3.2 km/h 82% 0.0 mm CLR
02:05 24.0 °C 20.7 °C 1014.4 hPa NNW 3.2 km/h   82% 0.0 mm CLR
02:10 24.0 °C 20.7 °C 1014.4 hPa Calm     82% 0.0 mm CLR
02:15 24.0 °C 20.9 °C 1014.4 hPa Calm   8.0 km/h 83% 0.0 mm CLR
02:20 23.9 °C 20.8 °C 1014.3 hPa NNW 3.2 km/h 8.0 km/h 83% 0.0 mm CLR
02:25 23.9 °C 20.8 °C 1014.3 hPa North 3.2 km/h 8.0 km/h 83% 0.0 mm CLR
02:30 23.9 °C 20.8 °C 1014.3 hPa NNE 3.2 km/h 8.0 km/h 83% 0.0 mm CLR
02:35 23.9 °C 20.8 °C 1014.2 hPa North 3.2 km/h 8.0 km/h 83% 0.0 mm CLR
02:40 23.9 °C 20.8 °C 1014.2 hPa NNW 3.2 km/h 6.4 km/h 83% 0.0 mm CLR
02:45 23.8 °C 20.9 °C 1014.2 hPa North 3.2 km/h 8.0 km/h 84% 0.0 mm CLR
02:50 23.8 °C 20.9 °C 1013.9 hPa NNE 3.2 km/h 8.0 km/h 84% 0.0 mm CLR
02:55 23.8 °C 20.9 °C 1013.9 hPa NNE 3.2 km/h 8.0 km/h 84% 0.0 mm CLR
03:00 23.8 °C 20.9 °C 1013.9 hPa NE 3.2 km/h 8.0 km/h 84% 0.0 mm CLR
03:05 23.8 °C 20.9 °C 1014.1 hPa NE 3.2 km/h 8.0 km/h 84% 0.0 mm CLR
03:10 23.7 °C 20.8 °C 1014.1 hPa NE 3.2 km/h 3.2 km/h 84% 0.0 mm CLR
03:15 23.7 °C 20.8 °C 1014.1 hPa NE 3.2 km/h 3.2 km/h 84% 0.0 mm CLR
03:20 23.7 °C 21.0 °C 1014.1 hPa NE 1.6 km/h 4.8 km/h 85% 0.0 mm
03:25 23.7 °C 21.0 °C 1014.1 hPa ENE 1.6 km/h 6.4 km/h 85% 0.0 mm
03:30 23.8 °C 21.1 °C 1014.1 hPa ENE 1.6 km/h   85% 0.0 mm
03:35 23.8 °C 21.1 °C 1014.1 hPa ENE 1.6 km/h   85% 0.0 mm
03:40 23.8 °C 21.1 °C 1014.1 hPa Calm     85% 0.0 mm
03:45 23.8 °C 21.1 °C 1014.1 hPa Calm     85% 0.0 mm
03:50 23.9 °C 21.1 °C 1014.1 hPa Calm     84% 0.0 mm CLR
03:55 23.9 °C 21.1 °C 1014.1 hPa Calm   8.0 km/h 84% 0.0 mm CLR
04:00 23.9 °C 21.0 °C 1014.1 hPa North 3.2 km/h 8.0 km/h 84% 0.0 mm CLR
04:05 23.8 °C 20.9 °C 1014.0 hPa NW 3.2 km/h 6.4 km/h 84% 0.0 mm CLR
04:10 23.8 °C 20.9 °C 1014.0 hPa NW 3.2 km/h 8.0 km/h 84% 0.0 mm CLR
04:15 23.7 °C 21.0 °C 1014.0 hPa NW 3.2 km/h 8.0 km/h 85% 0.0 mm
04:20 23.7 °C 21.0 °C 1014.2 hPa WNW 3.2 km/h 8.0 km/h 85% 0.0 mm
04:25 23.7 °C 21.0 °C 1014.2 hPa West 3.2 km/h 8.0 km/h 85% 0.0 mm
04:30 23.7 °C 20.8 °C 1014.2 hPa West 3.9 km/h   84% 0.0 mm CLR
04:35 23.7 °C 21.0 °C 1014.1 hPa West 3.2 km/h   85% 0.0 mm
04:40 23.7 °C 20.8 °C 1014.1 hPa Calm   6.4 km/h 84% 0.0 mm CLR
04:45 23.7 °C 20.8 °C 1014.1 hPa Calm   8.0 km/h 84% 0.0 mm CLR
04:50 23.7 °C 20.8 °C 1014.1 hPa WNW 3.2 km/h 6.4 km/h 84% 0.0 mm CLR
04:55 23.7 °C 20.8 °C 1014.1 hPa WNW 3.2 km/h 8.0 km/h 84% 0.0 mm CLR
05:00 23.7 °C 20.8 °C 1014.1 hPa West 1.6 km/h 3.2 km/h 84% 0.0 mm CLR
05:05 23.7 °C 20.8 °C 1014.0 hPa SE 2.3 km/h 5.8 km/h 84% 0.0 mm CLR
05:10 23.7 °C 20.8 °C 1014.0 hPa SSW 1.6 km/h 8.0 km/h 84% 0.0 mm CLR
05:15 23.7 °C 20.8 °C 1014.0 hPa ESE 1.6 km/h 4.8 km/h 84% 0.0 mm CLR
05:20 23.7 °C 20.8 °C 1013.8 hPa East 3.2 km/h 8.0 km/h 84% 0.0 mm
05:25 23.6 °C 20.9 °C 1013.8 hPa East 3.2 km/h 8.0 km/h 85% 0.0 mm
05:30 23.6 °C 20.9 °C 1013.8 hPa ENE 3.2 km/h 4.8 km/h 85% 0.0 mm CLR
05:35 23.6 °C 20.9 °C 1013.8 hPa NE 3.2 km/h   85% 0.0 mm CLR
05:40 23.6 °C 20.9 °C 1013.8 hPa Calm     85% 0.0 mm CLR
05:45 23.6 °C 20.9 °C 1013.8 hPa Calm     85% 0.0 mm CLR
05:50 23.6 °C 20.9 °C 1013.7 hPa Calm   8.0 km/h 85% 0.0 mm CLR
05:55 23.6 °C 20.9 °C 1013.7 hPa Calm   8.0 km/h 85% 0.0 mm CLR
06:00 23.5 °C 20.8 °C 1013.7 hPa NE 3.2 km/h 4.8 km/h 85% 0.0 mm CLR
06:05 23.5 °C 20.8 °C 1013.6 hPa NE 3.2 km/h   85% 0.0 mm CLR
06:10 23.5 °C 20.8 °C 1013.6 hPa Calm     85% 0.0 mm CLR
06:15 23.4 °C 20.8 °C 1013.6 hPa Calm     85% 0.0 mm CLR
06:20 23.4 °C 20.7 °C 1013.2 hPa NE 3.2 km/h 9.7 km/h 85% 0.0 mm CLR
06:25 23.4 °C 20.7 °C 1013.2 hPa NE 3.2 km/h 8.0 km/h 85% 0.0 mm CLR
06:30 23.4 °C 20.7 °C 1013.2 hPa ENE 3.2 km/h 3.2 km/h 85% 0.0 mm CLR
06:35 23.4 °C 20.7 °C 1013.1 hPa ENE 3.2 km/h 6.4 km/h 85% 0.0 mm CLR
06:40 23.3 °C 20.8 °C 1013.1 hPa NE 1.6 km/h 4.8 km/h 86% 0.0 mm CLR
06:45 23.3 °C 20.8 °C 1013.1 hPa NE 1.6 km/h   86% 0.0 mm CLR
06:50 23.3 °C 20.8 °C 1013.5 hPa Calm   4.8 km/h 86% 0.0 mm CLR
06:55 23.3 °C 20.8 °C 1013.5 hPa Calm   4.8 km/h 86% 0.0 mm CLR
07:00 23.3 °C 20.8 °C 1013.5 hPa Calm   1.6 km/h 86% 0.0 mm CLR
07:05 23.3 °C 20.8 °C 1013.3 hPa Calm   4.8 km/h 86% 0.0 mm CLR
07:10 23.2 °C 20.7 °C 1013.3 hPa NE 1.6 km/h 4.8 km/h 86% 0.0 mm CLR
07:15 23.2 °C 20.7 °C 1013.3 hPa NNE 1.6 km/h 4.8 km/h 86% 0.0 mm CLR
07:20 23.2 °C 20.7 °C 1013.4 hPa North 1.6 km/h   86% 0.0 mm CLR
07:25 23.2 °C 20.7 °C 1013.4 hPa North 1.6 km/h   86% 0.0 mm CLR
07:30 23.2 °C 20.7 °C 1013.4 hPa Calm   4.8 km/h 86% 0.0 mm CLR
07:35 23.2 °C 20.7 °C 1013.4 hPa Calm   3.7 km/h 86% 0.0 mm CLR
07:40 23.1 °C 20.6 °C 1013.4 hPa NE 3.2 km/h 3.2 km/h 86% 0.0 mm CLR
07:45 23.2 °C 20.7 °C 1013.4 hPa NE 3.2 km/h   86% 0.0 mm CLR
07:50 23.1 °C 20.6 °C 1013.5 hPa Calm     86% 0.0 mm CLR
07:55 23.2 °C 20.7 °C 1013.5 hPa Calm     86% 0.0 mm CLR
08:00 23.2 °C 20.7 °C 1013.5 hPa Calm   8.0 km/h 86% 0.0 mm CLR
08:05 23.2 °C 20.7 °C 1013.4 hPa Calm   6.4 km/h 86% 0.0 mm CLR
08:10 23.2 °C 20.7 °C 1013.4 hPa ENE 3.2 km/h 4.8 km/h 86% 0.0 mm CLR
08:15 23.2 °C 20.7 °C 1013.4 hPa NE 3.2 km/h 8.0 km/h 86% 0.0 mm CLR
08:20 23.1 °C 20.6 °C 1013.3 hPa NE 4.8 km/h 9.7 km/h 86% 0.0 mm CLR
08:25 23.1 °C 20.8 °C 1013.3 hPa North 4.8 km/h 8.0 km/h 87% 0.0 mm CLR
08:30 23.2 °C 20.9 °C 1013.3 hPa NNW 3.2 km/h 8.0 km/h 87% 0.0 mm CLR
08:35 23.2 °C 20.9 °C 1013.3 hPa North 3.2 km/h 6.4 km/h 87% 0.0 mm CLR
08:40 23.3 °C 20.8 °C 1013.3 hPa North 1.6 km/h   86% 0.0 mm CLR
08:45 23.4 °C 20.9 °C 1013.3 hPa NNW 1.6 km/h   86% 0.0 mm
08:50 23.6 °C 20.9 °C 1013.4 hPa Calm     85% 0.0 mm CLR
08:55 23.8 °C 21.1 °C 1013.4 hPa Calm     85% 0.0 mm
09:00 23.9 °C 20.9 °C 1013.4 hPa NNE 1.6 km/h 8.0 km/h 83% 0.0 mm CLR
09:05 24.2 °C 20.9 °C 1013.3 hPa ENE 1.6 km/h 12.9 km/h 82% 0.0 mm CLR
09:10 24.1 °C 20.8 °C 1013.3 hPa ENE 4.8 km/h 16.1 km/h 82% 0.0 mm CLR
09:15 23.9 °C 20.6 °C 1013.3 hPa NE 4.8 km/h 16.1 km/h 82% 0.0 mm CLR
09:20 23.9 °C 20.8 °C 1013.6 hPa NE 8.0 km/h 8.0 km/h 83% 0.0 mm CLR
09:25 23.9 °C 20.7 °C 1013.6 hPa NE 8.0 km/h 9.7 km/h 82% 0.0 mm CLR
09:30 24.0 °C 20.7 °C 1013.6 hPa NNE 3.2 km/h 9.7 km/h 82% 0.0 mm CLR
09:35 24.1 °C 20.8 °C 1013.3 hPa NNE 3.2 km/h 8.0 km/h 82% 0.0 mm CLR
09:40 24.2 °C 20.7 °C 1013.3 hPa ENE 4.7 km/h 13.0 km/h 81% 0.0 mm CLR
09:45 24.3 °C 20.9 °C 1013.3 hPa NE 3.2 km/h 20.9 km/h 81% 0.0 mm CLR
09:50 24.6 °C 20.9 °C 1013.0 hPa NE 12.9 km/h 27.4 km/h 80% 0.0 mm CLR
09:55 24.8 °C 20.9 °C 1013.0 hPa NE 12.9 km/h 25.7 km/h 79% 0.0 mm CLR
10:00 25.1 °C 21.0 °C 1013.0 hPa NE 12.9 km/h 22.5 km/h 78% 0.0 mm CLR
10:05 25.1 °C 20.8 °C 1013.3 hPa NE 12.9 km/h 25.7 km/h 77% 0.0 mm CLR
10:10 25.1 °C 20.8 °C 1013.3 hPa NE 14.5 km/h 25.7 km/h 77% 0.0 mm CLR
10:15 25.2 °C 20.9 °C 1013.3 hPa NE 14.5 km/h 20.9 km/h 77% 0.0 mm CLR
10:20 25.3 °C 20.8 °C 1013.8 hPa NE 11.3 km/h 19.3 km/h 76% 0.0 mm CLR
10:25 25.3 °C 20.8 °C 1013.8 hPa NE 11.3 km/h 24.1 km/h 76% 0.0 mm CLR
10:30 25.3 °C 20.8 °C 1013.8 hPa NE 11.3 km/h 19.3 km/h 76% 0.0 mm CLR
10:35 25.3 °C 20.8 °C 1013.8 hPa NE 11.3 km/h 14.5 km/h 76% 0.0 mm CLR
10:40 25.4 °C 20.8 °C 1013.8 hPa NE 9.7 km/h 16.1 km/h 76% 0.0 mm CLR
10:45 25.7 °C 20.9 °C 1013.8 hPa NE 9.7 km/h 19.3 km/h 75% 0.0 mm CLR
10:50 25.6 °C 20.8 °C 1014.0 hPa NE 10.3 km/h 14.8 km/h 75% 0.0 mm CLR
10:55 25.7 °C 20.9 °C 1014.0 hPa NE 11.3 km/h 16.1 km/h 75% 0.0 mm CLR
11:00 25.8 °C 20.8 °C 1014.0 hPa NE 11.3 km/h 20.9 km/h 74% 0.0 mm CLR
11:05 25.8 °C 20.8 °C 1014.1 hPa NE 11.3 km/h 22.5 km/h 74% 0.0 mm CLR
11:10 25.8 °C 20.8 °C 1014.1 hPa NE 11.3 km/h 17.7 km/h 74% 0.0 mm CLR
11:15 25.8 °C 21.0 °C 1014.1 hPa NNE 11.3 km/h 16.1 km/h 75% 0.0 mm CLR
11:20 25.7 °C 20.9 °C 1013.9 hPa NNE 11.3 km/h 17.7 km/h 75% 0.0 mm CLR
11:25 25.7 °C 20.9 °C 1013.9 hPa NNE 11.3 km/h 20.9 km/h 75% 0.0 mm CLR
11:30 25.8 °C 21.1 °C 1013.9 hPa NE 12.9 km/h 27.4 km/h 75% 0.0 mm CLR
11:35 26.0 °C 20.6 °C 1013.8 hPa NNE 12.9 km/h 27.4 km/h 72% 0.0 mm CLR
11:40 26.4 °C 20.4 °C 1013.8 hPa NE 16.1 km/h 27.4 km/h 70% 0.0 mm CLR
11:45 26.8 °C 20.4 °C 1013.8 hPa NE 16.1 km/h 25.7 km/h 68% 0.0 mm CLR
11:50 26.8 °C 20.4 °C 1013.8 hPa NE 19.3 km/h 27.4 km/h 68% 0.0 mm CLR
11:55 26.9 °C 20.5 °C 1013.8 hPa NE 19.3 km/h 29.0 km/h 68% 0.0 mm CLR
12:00 27.1 °C 20.4 °C 1013.8 hPa NE 16.1 km/h 29.0 km/h 67% 0.0 mm CLR
12:05 27.1 °C 20.4 °C 1013.9 hPa NE 16.1 km/h 25.7 km/h 67% 0.0 mm CLR
12:10 27.1 °C 20.4 °C 1013.9 hPa NE 14.5 km/h 27.4 km/h 67% 0.0 mm CLR
12:15 26.9 °C 20.3 °C 1013.9 hPa NE 14.5 km/h 30.6 km/h 67% 0.0 mm CLR
12:20 26.9 °C 20.3 °C 1013.8 hPa NE 19.3 km/h 29.0 km/h 67% 0.0 mm CLR
12:25 26.8 °C 20.2 °C 1013.8 hPa NE 19.3 km/h 29.0 km/h 67% 0.0 mm CLR
12:30 26.8 °C 19.9 °C 1013.8 hPa NE 19.3 km/h 32.2 km/h 66% 0.0 mm CLR
12:35 26.8 °C 19.9 °C 1013.8 hPa NE 19.3 km/h 33.8 km/h 66% 0.0 mm CLR
12:40 26.9 °C 19.8 °C 1013.8 hPa NE 19.3 km/h 30.6 km/h 65% 0.0 mm CLR
12:45 26.9 °C 20.1 °C 1013.8 hPa NE 19.3 km/h 33.8 km/h 66% 0.0 mm CLR
12:50 27.1 °C 20.2 °C 1013.7 hPa NE 16.1 km/h 25.7 km/h 66% 0.0 mm CLR
12:55 27.2 °C 20.1 °C 1013.7 hPa NE 16.1 km/h 22.5 km/h 65% 0.0 mm CLR
13:00 27.3 °C 19.9 °C 1013.7 hPa NE 12.9 km/h 32.2 km/h 64% 0.0 mm CLR
13:05 27.3 °C 19.6 °C 1013.7 hPa NNE 13.7 km/h 22.2 km/h 63% 0.0 mm CLR
13:10 27.5 °C 20.1 °C 1013.7 hPa NE 16.1 km/h 25.7 km/h 64% 0.0 mm CLR
13:15 27.7 °C 20.0 °C 1013.7 hPa NE 16.1 km/h 29.0 km/h 63% 0.0 mm CLR
13:20 27.7 °C 20.3 °C 1013.5 hPa NE 20.9 km/h 35.4 km/h 64% 0.0 mm CLR
13:25 27.6 °C 20.7 °C 1013.5 hPa NE 20.9 km/h 38.6 km/h 66% 0.0 mm CLR
13:30 27.7 °C 20.5 °C 1013.5 hPa NE 20.9 km/h 38.6 km/h 65% 0.0 mm CLR
13:35 27.7 °C 20.3 °C 1013.8 hPa NE 20.9 km/h 32.2 km/h 64% 0.0 mm CLR
13:40 27.5 °C 20.6 °C 1013.8 hPa NE 19.3 km/h 33.8 km/h 66% 0.0 mm CLR
13:45 27.3 °C 20.6 °C 1013.8 hPa NE 19.3 km/h 27.4 km/h 67% 0.0 mm CLR
13:50 27.3 °C 20.6 °C 1013.7 hPa NE 14.5 km/h 24.1 km/h 67% 0.0 mm CLR
13:55 27.3 °C 20.2 °C 1013.7 hPa NE 14.5 km/h 32.2 km/h 65% 0.0 mm CLR
14:00 27.6 °C 20.1 °C 1013.7 hPa NE 16.1 km/h 30.6 km/h 64% 0.0 mm CLR
14:05 27.9 °C 19.7 °C 1013.6 hPa NE 16.1 km/h 24.1 km/h 61% 0.0 mm CLR
14:10 28.2 °C 19.7 °C 1013.6 hPa NE 12.9 km/h 30.6 km/h 60% 0.0 mm CLR
14:15 28.3 °C 19.5 °C 1013.6 hPa NE 12.9 km/h 30.6 km/h 59% 0.0 mm CLR
14:20 28.4 °C 19.3 °C 1013.5 hPa NE 16.1 km/h 30.6 km/h 58% 0.0 mm CLR
14:25 28.4 °C 19.3 °C 1013.5 hPa NE 16.1 km/h 29.0 km/h 58% 0.0 mm CLR
14:30 28.4 °C 19.3 °C 1013.5 hPa NE 16.1 km/h 33.8 km/h 58% 0.0 mm CLR
14:35 28.4 °C 19.1 °C 1013.3 hPa NE 16.1 km/h 33.8 km/h 57% 0.0 mm CLR
14:40 28.3 °C 19.0 °C 1013.3 hPa NE 20.9 km/h 33.8 km/h 57% 0.0 mm CLR
14:45 28.7 °C 19.3 °C 1013.3 hPa NE 20.9 km/h 30.6 km/h 57% 0.0 mm CLR
14:50 28.7 °C 19.9 °C 1013.1 hPa NE 14.5 km/h 30.6 km/h 59% 0.0 mm CLR
14:55 28.7 °C 19.6 °C 1013.1 hPa ENE 14.5 km/h 30.6 km/h 58% 0.0 mm CLR
15:00 28.6 °C 19.8 °C 1013.1 hPa ENE 14.5 km/h 27.4 km/h 59% 0.0 mm CLR
15:05 28.7 °C 19.6 °C 1012.8 hPa ENE 14.5 km/h 27.4 km/h 58% 0.0 mm CLR
15:10 28.8 °C 20.0 °C 1012.8 hPa ENE 14.5 km/h 29.0 km/h 59% 0.0 mm CLR
15:15 28.9 °C 19.8 °C 1012.8 hPa ENE 14.5 km/h 29.0 km/h 58% 0.0 mm CLR
15:20 28.8 °C 20.0 °C 1012.5 hPa NE 15.6 km/h 17.2 km/h 59% 0.0 mm CLR
15:25 28.9 °C 20.3 °C 1012.5 hPa NNE 15.6 km/h 18.5 km/h 60% 0.0 mm CLR
15:30 28.8 °C 20.0 °C 1012.5 hPa NE 12.9 km/h 32.2 km/h 59% 0.0 mm CLR
15:35 28.7 °C 19.9 °C 1012.5 hPa NE 12.9 km/h 32.2 km/h 59% 0.0 mm CLR
15:40 28.7 °C 19.9 °C 1012.5 hPa NE 16.1 km/h 37.0 km/h 59% 0.0 mm CLR
15:45 28.8 °C 20.0 °C 1012.5 hPa ENE 16.1 km/h 29.0 km/h 59% 0.0 mm CLR
15:50 28.7 °C 19.9 °C 1012.6 hPa ENE 16.1 km/h 27.4 km/h 59% 0.0 mm CLR
15:55 28.6 °C 19.8 °C 1012.6 hPa NE 16.1 km/h 29.0 km/h 59% 0.0 mm CLR
16:00 28.6 °C 19.8 °C 1012.6 hPa ENE 16.1 km/h 22.5 km/h 59% 0.0 mm CLR
16:05 28.7 °C 20.2 °C 1012.4 hPa NE 16.1 km/h 33.8 km/h 60% 0.0 mm CLR
16:10 28.4 °C 20.2 °C 1012.4 hPa NE 16.1 km/h 33.8 km/h 61% 0.0 mm CLR
16:15 28.3 °C 20.3 °C 1012.4 hPa NE 16.1 km/h 35.4 km/h 62% 0.0 mm CLR
16:20 28.5 °C 20.3 °C 1011.9 hPa NE 16.1 km/h 25.7 km/h 61% 0.0 mm CLR
16:25 28.7 °C 20.1 °C 1011.9 hPa NE 16.1 km/h 25.7 km/h 60% 0.0 mm CLR
16:30 28.6 °C 20.1 °C 1011.9 hPa NE 14.5 km/h 32.2 km/h 60% 0.0 mm CLR
16:35 28.4 °C 19.9 °C 1012.0 hPa NE 14.5 km/h 33.8 km/h 60% 0.0 mm CLR
16:40 28.2 °C 19.9 °C 1012.0 hPa NE 19.3 km/h 35.4 km/h 61% 0.0 mm CLR
16:45 28.2 °C 19.7 °C 1012.0 hPa NE 19.3 km/h 32.2 km/h 60% 0.0 mm CLR
16:50 28.2 °C 20.0 °C 1011.9 hPa NE 19.3 km/h 25.7 km/h 61% 0.0 mm CLR
16:55 28.3 °C 20.1 °C 1011.9 hPa NE 19.3 km/h 33.8 km/h 61% 0.0 mm CLR
17:00 28.1 °C 20.2 °C 1011.9 hPa NE 14.5 km/h 27.4 km/h 62% 0.0 mm CLR
17:05 28.1 °C 20.3 °C 1012.0 hPa NE 14.5 km/h 33.8 km/h 63% 0.0 mm CLR
17:10 27.8 °C 20.9 °C 1012.0 hPa NE 14.5 km/h 33.8 km/h 66% 0.0 mm CLR
17:15 27.8 °C 20.9 °C 1012.0 hPa ENE 14.5 km/h 27.4 km/h 66% 0.0 mm CLR
17:20 27.8 °C 20.6 °C 1011.9 hPa ENE 14.5 km/h 29.0 km/h 65% 0.0 mm CLR
17:25 27.7 °C 20.8 °C 1011.9 hPa ENE 14.5 km/h 25.7 km/h 66% 0.0 mm CLR
17:30 27.7 °C 20.5 °C 1011.9 hPa NE 14.5 km/h 27.4 km/h 65% 0.0 mm CLR
17:35 27.5 °C 20.3 °C 1012.0 hPa NE 14.5 km/h 29.0 km/h 65% 0.0 mm CLR
17:40 27.4 °C 20.3 °C 1012.0 hPa NE 16.1 km/h 33.8 km/h 65% 0.0 mm CLR
17:45 27.4 °C 20.5 °C 1012.0 hPa NE 16.4 km/h 24.1 km/h 66% 0.0 mm CLR
17:50 27.3 °C 20.4 °C 1011.8 hPa NE 19.3 km/h 32.2 km/h 66% 0.0 mm CLR
17:55 27.3 °C 20.4 °C 1011.8 hPa NE 19.3 km/h 29.0 km/h 66% 0.0 mm CLR
18:00 27.4 °C 20.4 °C 1011.8 hPa NE 16.1 km/h 22.5 km/h 66% 0.0 mm CLR
18:05 27.4 °C 20.0 °C 1012.1 hPa NE 16.1 km/h 25.7 km/h 64% 0.0 mm CLR
18:10 27.3 °C 20.2 °C 1012.1 hPa NE 14.5 km/h 25.7 km/h 65% 0.0 mm CLR
18:15 27.3 °C 20.2 °C 1012.1 hPa NE 14.5 km/h 24.1 km/h 65% 0.0 mm CLR
18:20 27.4 °C 20.2 °C 1012.1 hPa NE 12.9 km/h 25.7 km/h 65% 0.0 mm CLR
18:25 27.3 °C 20.2 °C 1012.1 hPa NE 12.2 km/h 13.0 km/h 65% 0.0 mm CLR
18:30 27.3 °C 20.2 °C 1012.1 hPa North 13.0 km/h 18.5 km/h 65% 0.0 mm CLR
18:35 27.3 °C 20.2 °C 1011.9 hPa NE 12.9 km/h 24.1 km/h 65% 0.0 mm CLR
18:40 27.2 °C 20.3 °C 1011.9 hPa NE 12.9 km/h 27.4 km/h 66% 0.0 mm CLR
18:45 27.2 °C 20.1 °C 1011.9 hPa NE 12.9 km/h 25.7 km/h 65% 0.0 mm CLR
18:50 27.2 °C 19.7 °C 1011.8 hPa NE 14.5 km/h 29.0 km/h 64% 0.0 mm CLR
18:55 27.1 °C 19.7 °C 1011.8 hPa NE 14.5 km/h 27.4 km/h 64% 0.0 mm CLR
19:00 27.1 °C 19.4 °C 1011.8 hPa NE 19.3 km/h 32.2 km/h 63% 0.0 mm CLR
19:05 27.1 °C 19.4 °C 1011.9 hPa NE 19.3 km/h 25.7 km/h 63% 0.0 mm CLR
19:10 26.9 °C 19.0 °C 1011.9 hPa NE 16.1 km/h 25.7 km/h 62% 0.0 mm CLR
19:15 26.9 °C 19.0 °C 1011.9 hPa NE 16.1 km/h 25.7 km/h 62% 0.0 mm CLR
19:20 26.9 °C 19.3 °C 1011.9 hPa NE 14.5 km/h 24.1 km/h 63% 0.0 mm CLR
19:25 26.8 °C 19.2 °C 1011.9 hPa NE 14.5 km/h 22.5 km/h 63% 0.0 mm CLR
19:30 26.8 °C 19.2 °C 1011.9 hPa NE 12.9 km/h 20.9 km/h 63% 0.0 mm CLR
19:35 26.7 °C 19.1 °C 1011.6 hPa NE 12.9 km/h 30.6 km/h 63% 0.0 mm CLR
19:40 26.6 °C 19.2 °C 1011.6 hPa NE 16.1 km/h 33.8 km/h 64% 0.0 mm CLR
19:45 26.6 °C 19.2 °C 1011.6 hPa NE 16.1 km/h 27.4 km/h 64% 0.0 mm CLR
19:50 26.5 °C 19.6 °C 1011.2 hPa NE 19.3 km/h 33.8 km/h 66% 0.0 mm CLR
19:55 26.4 °C 19.8 °C 1011.2 hPa NE 19.3 km/h 25.7 km/h 67% 0.0 mm CLR
20:00 26.3 °C 19.9 °C 1011.2 hPa NE 14.5 km/h 24.1 km/h 68% 0.0 mm CLR
20:05 26.3 °C 20.2 °C 1011.0 hPa NE 14.5 km/h 29.0 km/h 69% 0.0 mm CLR
20:10 26.2 °C 20.5 °C 1011.0 hPa NE 16.1 km/h 27.4 km/h 71% 0.0 mm CLR
20:15 26.1 °C 20.4 °C 1011.0 hPa NE 16.1 km/h 25.7 km/h 71% 0.0 mm CLR
20:20 26.1 °C 20.6 °C 1011.3 hPa NE 14.5 km/h 19.3 km/h 72% 0.0 mm CLR
20:25 25.9 °C 20.4 °C 1011.3 hPa NE 14.5 km/h 25.7 km/h 72% 0.0 mm CLR
20:30 25.9 °C 20.7 °C 1011.3 hPa NE 12.9 km/h 22.5 km/h 73% 0.0 mm CLR
20:35 25.8 °C 20.6 °C 1011.4 hPa NE 12.9 km/h 24.1 km/h 73% 0.0 mm CLR
20:40 25.8 °C 20.6 °C 1011.4 hPa NE 12.2 km/h 16.7 km/h 73% 0.0 mm CLR
20:45 25.8 °C 20.6 °C 1011.4 hPa NE 12.9 km/h 20.9 km/h 73% 0.0 mm CLR
20:50 25.7 °C 20.7 °C 1011.4 hPa ENE 11.1 km/h 16.7 km/h 74% 0.0 mm CLR
20:55 25.7 °C 20.7 °C 1011.4 hPa NE 11.3 km/h 17.7 km/h 74% 0.0 mm CLR
21:00 25.7 °C 20.7 °C 1011.4 hPa NE 9.7 km/h 16.1 km/h 74% 0.0 mm CLR
21:05 25.7 °C 20.7 °C 1011.5 hPa NE 9.7 km/h 20.9 km/h 74% 0.0 mm CLR
21:10 25.6 °C 20.6 °C 1011.5 hPa NE 9.7 km/h 22.5 km/h 74% 0.0 mm CLR
21:15 25.6 °C 20.6 °C 1011.5 hPa NE 9.7 km/h 19.3 km/h 74% 0.0 mm CLR
21:20 25.5 °C 20.5 °C 1011.7 hPa NE 9.7 km/h 14.5 km/h 74% 0.0 mm CLR
21:25 25.4 °C 20.7 °C 1011.7 hPa NE 9.7 km/h 12.9 km/h 75% 0.0 mm CLR
21:30 25.4 °C 20.7 °C 1011.7 hPa NNE 8.0 km/h 11.3 km/h 75% 0.0 mm CLR
21:35 25.4 °C 20.6 °C 1012.1 hPa NNE 8.0 km/h 8.0 km/h 75% 0.0 mm CLR
21:40 25.3 °C 20.6 °C 1012.1 hPa North 4.8 km/h 8.0 km/h 75% 0.0 mm CLR
21:45 25.3 °C 20.6 °C 1012.1 hPa North 4.8 km/h 9.7 km/h 75% 0.0 mm CLR
21:50 25.4 °C 20.7 °C 1012.6 hPa North 3.2 km/h 4.8 km/h 75% 0.0 mm CLR
21:55 25.4 °C 20.7 °C 1012.6 hPa NE 3.2 km/h 6.4 km/h 75% 0.0 mm CLR
22:00 25.5 °C 20.9 °C 1012.6 hPa NE 3.2 km/h 8.0 km/h 76% 0.0 mm CLR
22:05 25.6 °C 20.8 °C 1012.8 hPa East 3.2 km/h 16.1 km/h 75% 0.0 mm CLR
22:10 25.4 °C 21.1 °C 1012.8 hPa ENE 9.7 km/h 22.5 km/h 77% 0.0 mm CLR
22:15 25.4 °C 21.3 °C 1012.8 hPa ESE 9.7 km/h 14.5 km/h 78% 0.0 mm CLR
22:20 25.4 °C 21.3 °C 1013.4 hPa West 8.0 km/h 11.3 km/h 78% 0.0 mm CLR
22:25 25.3 °C 21.4 °C 1013.4 hPa NW 8.0 km/h 9.7 km/h 79% 0.0 mm CLR
22:30 25.3 °C 21.4 °C 1013.4 hPa NW 3.2 km/h 8.0 km/h 79% 0.0 mm CLR
22:35 25.2 °C 21.3 °C 1013.2 hPa NNW 3.2 km/h 9.7 km/h 79% 0.0 mm CLR
22:40 25.2 °C 21.5 °C 1013.2 hPa NW 3.2 km/h 8.0 km/h 80% 0.0 mm CLR
22:45 25.2 °C 21.5 °C 1013.2 hPa NW 3.2 km/h 8.0 km/h 80% 0.0 mm CLR
22:50 25.1 °C 21.4 °C 1013.4 hPa NNW 3.2 km/h 6.4 km/h 80% 0.0 mm CLR
22:55 25.1 °C 21.4 °C 1013.4 hPa NW 3.2 km/h 6.4 km/h 80% 0.0 mm CLR
23:00 25.1 °C 21.4 °C 1013.4 hPa WNW 1.6 km/h 6.4 km/h 80% 0.0 mm CLR
23:05 25.1 °C 21.4 °C 1013.3 hPa NW 1.6 km/h 4.8 km/h 80% 0.0 mm CLR
23:10 25.1 °C 21.4 °C 1013.3 hPa NW 3.2 km/h 8.0 km/h 80% 0.0 mm CLR
23:15 25.1 °C 21.4 °C 1013.3 hPa WNW 3.2 km/h 8.0 km/h 80% 0.0 mm CLR
23:20 25.2 °C 21.5 °C 1013.5 hPa WNW 3.2 km/h 9.7 km/h 80% 0.0 mm CLR
23:25 25.2 °C 21.5 °C 1013.5 hPa WNW 3.2 km/h 8.0 km/h 80% 0.0 mm CLR
23:30 25.2 °C 21.5 °C 1013.5 hPa NW 4.8 km/h 8.0 km/h 80% 0.0 mm CLR
23:35 25.1 °C 21.6 °C 1013.5 hPa NNW 4.8 km/h 8.0 km/h 81% 0.0 mm CLR
23:40 25.1 °C 21.6 °C 1013.5 hPa NNW 4.8 km/h 9.7 km/h 81% 0.0 mm CLR
23:45 25.1 °C 21.6 °C 1013.5 hPa North 4.8 km/h 11.3 km/h 81% 0.0 mm CLR
23:50 25.1 °C 21.7 °C 1013.5 hPa NNE 4.8 km/h 9.7 km/h 81% 0.0 mm CLR
23:55 25.2 °C 21.4 °C 1013.5 hPa NNE 4.8 km/h 11.3 km/h 80% 0.0 mm CLR
Murcia-Puente Tocinos, España
Compliments of Weather Underground - 2.75 mb

La estación de MeteoMurcia.com, publica sus datos en los siguientes proyectos:

Weather Underground PWS IMURCIAP2 Meteoclimatic www.awekas.at

W3Counter
Web Analytics